Regional Weather Roundup
Issued by NWS

Home | Current Version | Previous Version | Graphics & Text | Print | Product List | Glossary Off
Versions: 1 2 3 4 5 6 7 8 9 10 11 12 13 14 15 16 17 18 19 20 21 22 23 24 25 26 27 28 29 30 31 32 33 34 35 36 37 38 39 40 41 42 43 44 45 46 47 48 49 50

000
ASUS43 KOAX 311010
RWRNE

WEATHER ROUNDUP FOR NEBRASKA
NATIONAL WEATHER SERVICE OMAHA NE
500 AM CDT SUN AUG 31 2014

NOTES: SATELLITE DATA IS BEING USED TO AUGMENT CLOUD COVER ABOVE
       12000 FEET.
       "FAIR" INDICATES FEW OR NO CLOUDS BELOW 12,000 FEET WITH NO
       SIGNIFICANT WEATHER AND/OR OBSTRUCTIONS TO VISIBILITY.

  * THESE STATIONS DO NOT REPORT WEATHER SUCH AS RAIN...SNOW OR FOG.

NEZ001>004-019>022-054>056-311100-
NEBRASKA PANHANDLE

CITY           SKY/WX    TMP DP  RH WIND       PRES   REMARKS
SCOTTSBLUFF    PTCLDY    57  52  83 CALM      29.81F
ALLIANCE       CLEAR     54  50  86 CALM      29.79F
CHADRON        CLEAR     54  52  93 W6        29.78S
KIMBALL        MOCLDY    57  50  76 SW10      29.88S
SIDNEY         PTCLDY    59  50  72 NW10      29.87S
$$

NEZ057>060-069>072-079>082-311100-
SOUTHWEST NEBRASKA

CITY           SKY/WX    TMP DP  RH WIND       PRES   REMARKS
NORTH PLATTE   MOCLDY    66  56  70 N5        29.78S
IMPERIAL       MOCLDY    65  53  65 CALM      29.82R
LEXINGTON      MOCLDY    67  59  75 S6        29.77F
MCCOOK         CLOUDY    79  50  36 S8G25     29.77F
OGALLALA       PTCLDY    56  54  93 CALM      29.80F
$$

NEZ005>010-023>029-035>040-094-311100-
NORTH CENTRAL NEBRASKA

CITY           SKY/WX    TMP DP  RH WIND       PRES   REMARKS
VALENTINE      MOCLDY    66  54  65 NW8       29.72F
AINSWORTH      MOCLDY    64  59  85 SW5       29.72S
BROKEN BOW     MOCLDY    64  59  83 SE6       29.75F
O`NEILL        PTCLDY    68  62  79 S6        29.72F
ORD            PTCLDY    63  60  90 SE3       29.75F
THEDFORD       MOCLDY    62  56  81 CALM      29.76R
$$

NEZ041-046>049-061>064-073>077-083>087-311100-
SOUTH CENTRAL NEBRASKA

CITY           SKY/WX    TMP DP  RH WIND       PRES   REMARKS
GRAND ISLAND   PTCLDY    68  61  78 S6        29.79F
AURORA         LGT RAIN  67  63  87 S7        29.79S
HASTINGS       PTCLDY    70  58  65 S10       29.80F
HEBRON         CLEAR     68  59  72 S6        29.80F
HOLDREGE       MOCLDY    68  58  70 S15       29.78F
KEARNEY *      PTCLDY    68  57  68 S13       29.78F
YORK           CLEAR     64 N/A N/A S7        29.79F
$$

NEZ011>018-030>034-042>045-311100-
NORTHEAST NEBRASKA

CITY           SKY/WX    TMP DP  RH WIND       PRES   REMARKS
NORFOLK        CLEAR     67  62  84 S10       29.76S
ALBION         MOCLDY    64  61  90 E3        29.79S
BLAIR          CLEAR     71  65  82 S12       29.80F
FREMONT        CLEAR     71  64  80 SE9       29.80S
TEKAMAH        CLEAR     63  62  97 S5        29.79F
WAYNE          CLEAR     65  63  94 SW5       29.78S
$$

NEZ050>053-065>068-078-088>093-311100-
SOUTHEAST NEBRASKA

CITY           SKY/WX    TMP DP  RH WIND       PRES   REMARKS
LINCOLN        CLEAR     68  63  84 S8        29.81F
OMAHA EPPLEY   CLEAR     71  65  81 S13       29.81F
BEATRICE       CLEAR     68  63  84 S7        29.83S
FALLS CITY     CLEAR     67  65  93 SE5       29.83F
NEBRASKA CITY  CLEAR     67  67 100 S8        29.84S
PLATTSMOUTH    CLEAR     69  65  88 SE9       29.83F
$$

NEZ044-045-051>053-067-311100-
OMAHA AREA

CITY           SKY/WX    TMP DP  RH WIND       PRES   REMARKS
OMAHA EPPLEY   CLEAR     71  65  81 S13       29.81F
BLAIR          CLEAR     71  65  82 S12       29.80F
FREMONT        CLEAR     71  64  80 SE9       29.80S
MILLARD        CLEAR     68  65  90 SE6       29.81F
OFFUTT AFB     CLEAR     69  69 100 SE8       29.81F
PLATTSMOUTH    CLEAR     69  65  88 SE9       29.83F
WAHOO          FAIR      66  63  90 SE5       29.80S
$$


USA.gov is the U.S. government's official web portal to all federal, state and local government web resources and services.